GW4399 Weather Reports


time (UTC)temp
C
wind
direction
speed
KPH
gust
KPH
rain 1hr
cm
rain 24hr
cm
rain mn
cm
humidity
%
barometer
mb
20260506103450 18 182 3.2 6.4 0.00 0.00 0.00 70 1023.1
20260506102946 18 217 3.2 4.8 0.00 0.00 0.00 69 1023.0
20260506102445 18 232 4.8 6.4 0.00 0.00 0.00 69 1023.1
20260506101942 18 199 4.8 9.7 0.00 0.00 0.00 69 1022.9
20260506101438 18 204 1.6 9.7 0.00 0.00 0.00 69 1023.1
20260506100935 18 205 1.6 9.7 0.00 0.00 0.00 69 1022.8
20260506100434 18 211 3.2 4.8 0.00 0.00 0.00 69 1022.7
20260506095931 18 213 0.0 3.2 0.00 0.00 0.00 68 1022.6
20260506095430 18 196 3.2 3.2 0.00 0.00 0.00 69 1022.8
20260506094925 18 181 1.6 3.2 0.00 0.00 0.00 68 1022.7
20260506094424 18 164 3.2 6.4 0.00 0.00 0.00 68 1022.9
20260506093921 18 214 1.6 6.4 0.00 0.00 0.00 68 1023.2
20260506093419 18 197 3.2 6.4 0.00 0.00 0.00 68 1023.0
20260506092917 18 196 3.2 6.4 0.00 0.00 0.00 68 1023.1
20260506092415 18 188 3.2 3.2 0.00 0.00 0.00 67 1023.2
20260506091911 18 211 3.2 4.8 0.00 0.00 0.00 67 1023.0
20260506091409 18 204 3.2 3.2 0.00 0.00 0.00 67 1023.0
20260506090906 18 197 1.6 4.8 0.00 0.00 0.00 66 1023.1
20260506090404 18 181 1.6 4.8 0.00 0.00 0.00 66 1022.9
20260506085900 18 202 3.2 6.4 0.00 0.00 0.00 65 1022.9
20260506085357 18 196 3.2 3.2 0.00 0.00 0.00 65 1023.1
20260506084853 18 203 4.8 11.3 0.00 0.00 0.00 64 1023.1
20260506084350 18 197 3.2 4.8 0.00 0.00 0.00 64 1023.1
20260506083846 18 188 3.2 3.2 0.00 0.00 0.00 63 1023.0
20260506083344 18 172 1.6 4.8 0.00 0.00 0.00 63 1023.2
20260506082841 18 186 1.6 9.7 0.00 0.00 0.00 62 1023.2
20260506082337 18 179 1.6 4.8 0.00 0.00 0.00 62 1023.3
20260506081833 18 155 3.2 4.8 0.00 0.00 0.00 62 1023.1
20260506081331 18 188 3.2 4.8 0.00 0.00 0.00 62 1023.1
20260506080829 18 186 1.6 1.6 0.00 0.00 0.00 61 1023.2
20260506080326 18 178 3.2 3.2 0.00 0.00 0.00 61 1023.3
20260506073309 18 191 1.6 4.8 0.00 0.00 0.00 60 1023.1
20260506072806 19 181 1.6 4.8 0.00 0.00 0.00 60 1023.2
20260506072305 20 183 1.6 3.2 0.00 0.00 0.00 59 1023.1
20260506071801 20 195 1.6 3.2 0.00 0.00 0.00 58 1023.2
20260506071259 20 198 4.8 4.8 0.00 0.00 0.00 57 1023.1
20260506070755 20 203 1.6 4.8 0.00 0.00 0.00 57 1023.3
20260506070253 20 194 0.0 6.4 0.00 0.00 0.00 57 1023.4
20260506062224 20 195 3.2 4.8 0.00 0.00 0.00 55 1023.6
20260506061720 20 201 4.8 4.8 0.00 0.00 0.00 55 1023.4
20260506061218 20 260 3.2 3.2 0.00 0.00 0.00 55 1023.4
20260506060716 20 195 3.2 6.4 0.00 0.00 0.00 55 1023.4
20260506060213 20 192 3.2 9.7 0.00 0.00 0.00 54 1023.6
20260506051144 21 205 6.4 6.4 0.00 0.00 0.00 52 1023.9
20260506050643 21 201 3.2 9.7 0.00 0.00 0.00 52 1023.9
20260506050139 21 188 3.2 3.2 0.00 0.00 0.00 53 1023.9
20260506045132 21 201 6.4 6.4 0.00 0.00 0.00 53 1023.9
20260506044630 21 203 4.8 6.4 0.00 0.00 0.00 53 1024.0
20260506044127 21 233 3.2 4.8 0.00 0.00 0.00 53 1024.0
20260506043624 21 224 4.8 4.8 0.00 0.00 0.00 52 1024.1
20260506043123 21 180 3.2 6.4 0.00 0.00 0.00 52 1024.1
20260506042621 21 201 3.2 9.7 0.00 0.00 0.00 52 1024.1
20260506042119 21 223 1.6 4.8 0.00 0.00 0.00 52 1023.9
20260506041617 21 231 3.2 4.8 0.00 0.00 0.00 52 1023.9
20260506041113 21 193 4.8 6.4 0.00 0.00 0.00 52 1023.9
20260506040612 21 199 4.8 9.7 0.00 0.00 0.00 51 1023.7
20260506040108 21 200 4.8 6.4 0.00 0.00 0.00 50 1023.7
20260506035605 21 190 3.2 6.4 0.00 0.03 0.03 50 1023.9
20260506035101 21 197 3.2 4.8 0.00 0.03 0.03 49 1023.9
20260506034559 22 259 8.0 9.7 0.00 0.03 0.03 48 1024.0
20260506034055 22 181 1.6 3.2 0.00 0.03 0.03 48 1023.7
20260506033553 22 223 4.8 9.7 0.00 0.03 0.03 47 1023.8
20260506033049 22 183 1.6 9.7 0.00 0.03 0.03 47 1023.7
20260506032547 22 202 4.8 9.7 0.00 0.03 0.03 46 1023.8
20260506032044 22 186 3.2 6.4 0.00 0.03 0.03 46 1023.7
20260506031541 22 220 1.6 3.2 0.00 0.03 0.03 46 1023.5
20260506031038 22 194 4.8 6.4 0.00 0.03 0.03 45 1023.5
20260506030537 22 196 1.6 4.8 0.00 0.03 0.03 45 1023.7
20260506030034 22 205 1.6 6.4 0.00 0.03 0.03 45 1023.5
20260506025531 22 189 1.6 12.9 0.00 0.03 0.03 45 1023.6
20260506025026 22 187 1.6 6.4 0.00 0.03 0.03 45 1023.7
20260506024523 23 179 1.6 3.2 0.00 0.03 0.03 44 1023.4
20260506024019 22 198 6.4 9.7 0.00 0.03 0.03 44 1023.6
20260506023516 23 184 3.2 4.8 0.00 0.03 0.03 44 1023.5
20260506023014 23 204 6.4 9.7 0.00 0.03 0.03 44 1023.5
20260506022511 23 187 4.8 6.4 0.00 0.03 0.03 43 1023.4
20260506022008 23 201 3.2 6.4 0.00 0.03 0.03 43 1023.6
20260506021505 23 186 4.8 11.3 0.00 0.03 0.03 43 1023.4
20260506021003 23 182 1.6 9.7 0.00 0.03 0.03 43 1023.1
20260506020500 23 271 3.2 9.7 0.00 0.03 0.03 42 1023.3
20260506015957 23 200 6.4 9.7 0.00 0.03 0.03 42 1023.3
20260506015455 23 204 3.2 6.4 0.00 0.03 0.03 42 1023.3
20260506014951 23 172 3.2 9.7 0.00 0.03 0.03 41 1023.4
20260506014448 23 202 1.6 4.8 0.00 0.03 0.03 41 1023.4
20260506013944 23 156 3.2 4.8 0.00 0.03 0.03 40 1023.3
20260506013443 23 218 3.2 9.7 0.00 0.03 0.03 40 1023.3
20260506012938 23 195 3.2 4.8 0.00 0.03 0.03 39 1023.2
20260506012435 23 174 1.6 4.8 0.00 0.03 0.03 39 1023.1
20260506011932 24 186 3.2 4.8 0.00 0.03 0.03 38 1023.2
20260506011430 24 203 4.8 4.8 0.00 0.03 0.03 38 1023.1
20260506010926 24 218 3.2 9.7 0.00 0.03 0.03 37 1022.9
20260506010425 24 178 1.6 11.3 0.00 0.03 0.03 38 1022.6
20260506005921 24 198 1.6 4.8 0.00 0.03 0.03 38 1022.8
20260506005419 23 213 4.8 9.7 0.00 0.03 0.03 37 1022.7
20260506004914 24 216 3.2 3.2 0.00 0.03 0.03 38 1022.7
20260506004412 24 195 6.4 11.3 0.00 0.03 0.03 37 1022.7
20260506003908 24 183 3.2 4.8 0.00 0.03 0.03 38 1022.8
20260506003404 24 196 4.8 11.3 0.00 0.03 0.03 37 1022.8
20260506002901 24 178 3.2 6.4 0.00 0.03 0.03 37 1022.7
20260506002357 24 210 3.2 4.8 0.00 0.03 0.03 37 1022.5
20260506001853 24 172 3.2 4.8 0.00 0.03 0.03 37 1022.5
20260506001350 23 207 3.2 4.8 0.00 0.03 0.03 37 1022.6
20260506000847 24 200 3.2 3.2 0.00 0.03 0.03 37 1022.6
20260506000346 24 175 3.2 4.8 0.00 0.03 0.03 37 1022.5
20260505235841 24 207 3.2 9.7 0.00 0.03 0.03 36 1022.4
20260505235339 24 203 3.2 4.8 0.00 0.03 0.03 36 1022.6
20260505234835 25 195 6.4 6.4 0.00 0.03 0.03 36 1022.4
20260505234334 24 193 3.2 6.4 0.00 0.03 0.03 36 1022.4
20260505233830 25 192 1.6 4.8 0.00 0.03 0.03 36 1022.2
20260505233328 25 163 1.6 4.8 0.00 0.03 0.03 36 1022.2
20260505232825 25 167 6.4 9.7 0.00 0.03 0.03 35 1022.2
20260505232323 25 198 4.8 6.4 0.00 0.03 0.03 35 1022.0
20260505231819 25 187 1.6 3.2 0.00 0.03 0.03 35 1022.0
20260505231317 25 197 3.2 4.8 0.00 0.03 0.03 36 1021.9
20260505230816 25 198 3.2 4.8 0.00 0.03 0.03 35 1022.0
20260505230312 25 202 3.2 6.4 0.00 0.03 0.03 35 1022.0
20260505225808 25 210 1.6 3.2 0.00 0.03 0.03 35 1021.9
20260505225306 25 181 6.4 9.7 0.00 0.03 0.03 34 1021.8
20260505224800 26 202 3.2 4.8 0.00 0.03 0.03 35 1021.5
20260505224259 26 169 4.8 9.7 0.00 0.03 0.03 34 1021.5
20260505223756 26 202 4.8 9.7 0.00 0.03 0.03 34 1021.6
20260505223252 26 197 1.6 3.2 0.00 0.03 0.03 34 1021.5
20260505222749 26 200 4.8 9.7 0.00 0.03 0.03 34 1021.6
20260505222246 26 214 1.6 12.9 0.00 0.03 0.03 33 1021.6
20260505221742 26 315 6.4 9.7 0.00 0.03 0.03 33 1021.5
20260505221238 26 207 4.8 16.1 0.00 0.03 0.03 32 1021.3
20260505220735 26 220 8.0 12.9 0.00 0.03 0.03 32 1021.1
20260505220233 26 193 4.8 9.7 0.00 0.03 0.03 32 1021.1
20260505215731 26 202 4.8 11.3 0.00 0.03 0.03 32 1021.1
20260505215229 26 198 9.7 11.3 0.00 0.03 0.03 32 1021.0
20260505214726 26 203 3.2 9.7 0.00 0.03 0.03 34 1020.9
20260505214224 26 212 3.2 16.1 0.00 0.03 0.03 33 1021.2
20260505213721 26 219 6.4 9.7 0.00 0.03 0.03 33 1021.2
20260505213218 26 214 1.6 4.8 0.00 0.03 0.03 34 1021.0
20260505212714 26 212 4.8 9.7 0.00 0.03 0.03 33 1021.2
20260505212212 26 218 6.4 9.7 0.00 0.03 0.03 33 1021.3
20260505211708 26 199 3.2 11.3 0.00 0.03 0.03 33 1021.2
20260505211205 26 214 1.6 4.8 0.00 0.03 0.03 35 1021.0
20260505210701 26 206 9.7 12.9 0.00 0.03 0.03 33 1020.9
20260505210159 26 207 4.8 11.3 0.00 0.03 0.03 33 1020.9
20260505205656 27 207 3.2 6.4 0.00 0.03 0.03 33 1021.1
20260505205154 27 183 4.8 6.4 0.00 0.03 0.03 32 1020.9
20260505204650 27 264 4.8 11.3 0.00 0.03 0.03 33 1020.7
20260505204148 27 207 6.4 6.4 0.00 0.03 0.03 32 1020.8
20260505203645 27 237 6.4 9.7 0.00 0.03 0.03 33 1020.8
20260505203142 28 223 6.4 14.5 0.00 0.03 0.03 32 1020.9
20260505202637 27 212 4.8 12.9 0.00 0.03 0.03 33 1020.8
20260505202133 27 207 3.2 9.7 0.00 0.03 0.03 33 1021.0
20260505201625 27 210 1.6 9.7 0.00 0.03 0.03 34 1021.1
20260505201123 27 287 8.0 12.9 0.00 0.03 0.03 32 1021.2
20260505200620 27 181 4.8 11.3 0.00 0.03 0.03 33 1021.5
20260505200117 28 267 4.8 14.5 0.00 0.03 0.03 32 1021.1
20260505195613 27 198 4.8 12.9 0.00 0.03 0.03 32 1021.2
20260505195111 28 172 3.2 6.4 0.00 0.03 0.03 34 1021.3
20260505194608 27 204 3.2 4.8 0.00 0.03 0.03 34 1021.3
20260505194103 28 191 3.2 6.4 0.00 0.03 0.03 33 1021.1
20260505193555 28 233 9.7 14.5 0.00 0.03 0.03 33 1021.3
20260505193052 28 206 6.4 6.4 0.00 0.03 0.03 32 1021.5
20260505192551 28 215 6.4 9.7 0.00 0.03 0.03 32 1021.8
20260505192048 27 277 6.4 9.7 0.00 0.03 0.03 35 1021.7
20260505191546 26 197 6.4 11.3 0.00 0.03 0.03 35 1021.7
20260505191044 27 203 4.8 11.3 0.00 0.03 0.03 35 1021.6
20260505190543 27 190 6.4 12.9 0.00 0.03 0.03 34 1021.9
20260505190040 27 218 8.0 12.9 0.00 0.03 0.03 34 1021.9
20260505185537 27 198 4.8 12.9 0.00 0.03 0.03 35 1022.0
20260505185033 28 279 6.4 12.9 0.00 0.03 0.03 34 1022.0
20260505184530 28 215 9.7 14.5 0.00 0.03 0.03 33 1021.9
20260505184027 28 123 4.8 6.4 0.00 0.03 0.03 35 1022.0
20260505183524 28 196 6.4 11.3 0.00 0.03 0.03 35 1022.2
20260505183022 27 310 6.4 9.7 0.00 0.03 0.03 36 1022.4
20260505182518 27 213 3.2 9.7 0.00 0.03 0.03 38 1022.4
20260505182015 27 34 6.4 6.4 0.00 0.03 0.03 36 1022.3
20260505181511 27 182 1.6 6.4 0.00 0.03 0.03 40 1022.6
20260505181008 27 252 4.8 11.3 0.00 0.03 0.03 37 1022.5
20260505180503 27 274 4.8 11.3 0.00 0.03 0.03 38 1022.5
20260505180001 27 285 3.2 14.5 0.00 0.03 0.03 39 1022.6
20260505175457 26 284 4.8 11.3 0.00 0.03 0.03 39 1022.6
20260505174954 27 264 6.4 20.9 0.00 0.03 0.03 38 1022.6
20260505174451 27 294 9.7 14.5 0.00 0.03 0.03 37 1022.6
20260505173947 27 271 3.2 6.4 0.00 0.03 0.03 37 1022.5
20260505173443 27 207 9.7 14.5 0.00 0.03 0.03 38 1022.5
20260505172940 27 226 4.8 16.1 0.00 0.03 0.03 38 1022.7
20260505172439 27 209 4.8 14.5 0.00 0.03 0.03 38 1022.7
20260505171937 27 189 3.2 6.4 0.00 0.03 0.03 39 1022.6
20260505171435 26 273 4.8 12.9 0.00 0.03 0.03 39 1022.9
20260505170931 26 222 6.4 11.3 0.00 0.03 0.03 39 1022.7
20260505170428 26 118 1.6 11.3 0.00 0.03 0.03 40 1022.9
20260505165924 26 215 4.8 11.3 0.00 0.03 0.03 39 1022.9
20260505165420 26 240 3.2 4.8 0.00 0.03 0.03 40 1023.0
20260505164915 26 262 6.4 14.5 0.00 0.03 0.03 41 1023.0
20260505164412 26 227 1.6 3.2 0.00 0.03 0.03 41 1022.9
20260505163910 26 221 6.4 9.7 0.00 0.03 0.03 40 1023.3
20260505163409 26 298 6.4 11.3 0.00 0.03 0.03 39 1023.5
20260505162908 26 275 1.6 4.8 0.00 0.03 0.03 44 1023.6
20260505162403 26 204 3.2 6.4 0.00 0.03 0.03 41 1023.6
20260505161900 25 115 0.0 6.4 0.00 0.03 0.03 44 1023.8
20260505161357 25 243 1.6 6.4 0.00 0.03 0.03 41 1023.8
20260505160854 25 257 3.2 9.7 0.00 0.03 0.03 42 1024.1
20260505160352 25 289 3.2 14.5 0.00 0.03 0.03 42 1024.1
20260505153332 25 269 6.4 12.9 0.00 0.03 0.03 42 1024.3
20260505152829 25 239 4.8 6.4 0.00 0.03 0.03 43 1024.3
20260505152326 25 277 6.4 9.7 0.00 0.03 0.03 43 1024.2
20260505151825 24 303 4.8 6.4 0.00 0.03 0.03 44 1024.4
20260505151322 25 285 4.8 12.9 0.00 0.03 0.03 43 1024.2
20260505150819 24 258 3.2 11.3 0.00 0.03 0.03 43 1024.1
20260505150316 25 257 4.8 14.5 0.00 0.03 0.03 43 1024.2
20260505140240 22 260 1.6 4.8 0.00 0.03 0.03 53 1024.4
20260505130204 19 273 3.2 4.8 0.00 0.03 0.03 60 1024.5
20260505124654 19 194 0.0 1.6 0.00 0.03 0.03 62 1024.3
20260505124151 18 194 0.0 1.6 0.00 0.03 0.03 61 1024.2
20260505123647 18 195 1.6 1.6 0.00 0.03 0.03 61 1024.3
20260505123144 18 343 0.0 0.0 0.00 0.03 0.03 63 1024.3
20260505122640 17 9 0.0 0.0 0.00 0.03 0.03 63 1024.5
20260505122138 16 270 0.0 1.6 0.00 0.03 0.03 64 1024.4
20260505121634 17 186 0.0 0.0 0.00 0.03 0.03 69 1024.5
20260505121131 16 186 0.0 1.6 0.00 0.03 0.03 69 1024.6
20260505120627 16 163 0.0 1.6 0.00 0.03 0.03 71 1024.6
20260505120123 16 165 0.0 1.6 0.00 0.03 0.03 72 1024.4
20260505115617 16 150 1.6 1.6 0.00 0.03 0.03 72 1024.4
20260505115115 16 241 0.0 1.6 0.00 0.03 0.03 73 1024.6
20260505114612 15 183 0.0 1.6 0.00 0.03 0.03 74 1024.5
20260505114108 14 183 1.6 1.6 0.00 0.03 0.03 76 1024.4
20260505113605 14 183 0.0 0.0 0.00 0.03 0.03 76 1024.7
20260505113101 14 181 0.0 3.2 0.00 0.03 0.03 76 1024.4
20260505112558 14 222 1.6 1.6 0.00 0.03 0.03 78 1024.8
20260505112056 15 196 3.2 3.2 0.00 0.03 0.03 75 1024.2
20260505111549 15 172 1.6 3.2 0.00 0.03 0.03 72 1024.2
20260505111046 16 194 3.2 4.8 0.00 0.03 0.03 70 1024.3
20260505110542 16 224 1.6 4.8 0.00 0.03 0.03 68 1024.2